Location: Fredericksburg
(30.2750°N, 98.8720°W)
Time: 10:21:43
(UTC-06:00)

ISS - All Passes

Search period start: 23 February 2017 00:00
Search period end: 05 March 2017 00:00
Orbit: 399 x 408 km, 51.6° (Epoch: 24 February)

Date Brightness Start Highest point End Pass type
(mag) Time Alt. Az. Time Alt. Az. Time Alt. Az.
23 Feb - 08:38:03 10° SW 08:41:18 60° NW 08:44:33 10° NE daylight
23 Feb - 15:12:15 10° NNE 15:13:01 11° NNE 15:13:48 10° NE daylight
23 Feb - 16:46:33 10° NW 16:49:47 69° SW 16:53:01 10° SE daylight
24 Feb - 07:45:37 10° SSW 07:48:49 54° SE 07:52:02 10° NE daylight
24 Feb - 09:24:02 10° WNW 09:25:30 12° NW 09:26:59 10° N daylight
24 Feb - 15:54:07 10° NNW 15:57:18 48° NE 16:00:27 10° ESE daylight
25 Feb - 06:53:46 10° S 06:56:25 23° SE 06:59:04 10° ENE daylight
25 Feb - 08:30:08 10° W 08:32:47 22° NW 08:35:27 10° NNE daylight
25 Feb - 15:01:59 10° NNW 15:04:40 23° NE 15:07:20 10° E daylight
25 Feb - 16:38:28 10° WNW 16:41:02 21° SW 16:43:35 10° S daylight
26 Feb - 06:03:38 10° SE 06:04:03 10° SE 06:04:28 10° ESE visible
26 Feb - 07:37:00 10° WSW 07:40:09 45° NW 07:43:20 10° NNE daylight
26 Feb - 14:10:23 10° N 14:11:56 13° NE 14:13:30 10° ENE daylight
26 Feb - 15:45:25 10° NW 15:48:37 50° SW 15:51:46 10° SSE daylight
27 Feb - 06:44:21 10° SW 06:47:36 73° SE 06:50:53 10° NE daylight
27 Feb - 08:23:49 10° NW 08:24:24 10° NNW 08:24:58 10° NNW daylight
27 Feb - 14:52:51 10° NW 14:56:05 64° NE 14:59:19 10° SE daylight
28 Feb - 05:52:14 10° SSW 05:55:08 29° SE 05:58:02 10° ENE visible
28 Feb - 07:29:14 10° W 07:31:36 18° NW 07:33:59 10° N daylight
28 Feb - 14:00:34 10° NNW 14:03:28 28° NE 14:06:21 10° ESE daylight
28 Feb - 15:37:33 10° W 15:39:43 17° SW 15:41:53 10° SSW daylight
01 Mar - 05:01:04 10° SSE 05:02:43 13° SE 05:04:23 10° E visible
01 Mar - 06:35:51 10° WSW 06:38:54 35° NW 06:41:57 10° NNE visible
01 Mar - 13:08:42 10° N 13:10:44 15° NE 13:12:45 10° ENE daylight
01 Mar - 14:44:14 10° WNW 14:47:17 37° SW 14:50:20 10° SSE daylight
02 Mar - 05:43:01 10° SW 05:46:17 84° NW 05:49:34 10° NE visible
02 Mar - 13:51:29 10° NW 13:54:46 85° NE 13:58:01 10° SE daylight
03 Mar - 04:50:40 10° SSW 04:53:45 38° SE 04:56:49 10° ENE visible
03 Mar - 06:28:17 10° WNW 06:30:18 15° NW 06:32:20 10° N visible
03 Mar - 12:59:04 10° NNW 13:02:08 35° NE 13:05:10 10° ESE daylight
03 Mar - 14:36:42 10° W 14:38:17 13° SW 14:39:53 10° SSW daylight
04 Mar - 03:59:04 10° S 04:01:16 17° SE 04:03:30 10° E visible
04 Mar - 05:34:39 10° WSW 05:37:32 28° NW 05:40:26 10° NNE visible
04 Mar - 12:07:00 10° N 12:09:23 18° NE 12:11:46 10° E daylight
04 Mar - 13:42:58 10° WNW 13:45:51 29° SW 13:48:43 10° S daylight
